Concord, NH

4:09 AM EST on December 06, 2016 (GMT -0500)
Concord Municipal

Weather History for KCON - September, 2013

Change the Weather History Date:

Monday, September 16, 2013

  Actual Average Record
Temperature  
Mean Temperature 53 °F 60 °F  
Max Temperature 68 °F 73 °F 95 °F (1939)
Min Temperature 37 °F 47 °F 27 °F (1964)
Degree Days  
Heating Degree Days 12 6  
Month to date heating degree days 78 64  
Since 1 July heating degree days 108 112  
Cooling Degree Days 0 1  
Month to date cooling degree days 46 29  
Year to date cooling degree days 537 442  
Growing Degree Days 6 (Base 50)    
Moisture  
Dew Point 47 °F    
Average Humidity 72    
Maximum Humidity 93    
Minimum Humidity 51    
Precipitation  
Precipitation T in 0.11 in 5.95 in (1932)
Month to date precipitation 4.16 1.67  
Year to date precipitation 32.45 27.94  
Snow  
Snow 0.00 in 0.00 in 0.00 in (2002)
Month to date snowfall 0.0 0.0  
Since 1 July snowfall 0.0 0.0  
Since 1 September snowfall 0.0 0.0  
Snow Depth 0.00 in    
Sea Level Pressure  
Sea Level Pressure 30.09 in    
Wind  
Wind Speed 6 mph (NNW)    
Max Wind Speed 18 mph    
Max Gust Speed 24 mph    
Visibility 10 miles    
Events Rain    
T = Trace of Precipitation, MM = Missing Value Source: NWS Daily Summary

Daily Weather History Graph

Daily Weather History Graph

Search for Another Location

Airport or City:

Trip Planner

Search our weather history database for the weather conditions in past years. The results will help you decide how hot, cold, wet, or windy it might be!

Date:

Astronomy

Sep. 16, 2013 Rise Set
Actual Time 6:26 AM EDT 6:53 PM EDT
Civil Twilight 5:58 AM EDT 7:22 PM EDT
Nautical Twilight 5:24 AM EDT 7:55 PM EDT
Astronomical Twilight 4:49 AM EDT 8:30 PM EDT
Moon 5:03 PM EDT (9/16) 3:05 AM EDT (9/16)
Length of Visible Light 13h 24m
Length of Day
12h 26m
Waxing Gibbous, 90% of the Moon is Illuminated
Sep 16
Waxing Gibbous
Sep 19
Full
Sep 26
Last Quarter
Oct 4
New
Oct 11
First Quarter

Hourly Weather History & Observations

Time (EDT) Temp. Windchill Dew Point Humidity Pressure Visibility Wind Dir Wind Speed Gust Speed Precip Events Conditions
12:51 AM 54.0 °F - 52.0 °F 93% 30.04 in 10.0 mi Calm Calm - N/A   Clear
1:51 AM 53.1 °F - 52.0 °F 96% 30.02 in 10.0 mi Calm Calm - N/A   Clear
2:51 AM 53.1 °F - 52.0 °F 96% 30.02 in 10.0 mi Calm Calm - N/A   Clear
3:51 AM 54.0 °F - 52.0 °F 93% 30.02 in 10.0 mi Calm Calm - N/A   Clear
4:51 AM 53.1 °F - 51.1 °F 93% 30.01 in 10.0 mi Calm Calm - N/A   Clear
5:51 AM 53.1 °F - 52.0 °F 96% 30.03 in 10.0 mi Calm Calm - N/A   Clear
6:51 AM 55.9 °F - 51.1 °F 84% 30.05 in 10.0 mi North 3.5 mph - 0.00 in Rain Light Rain
7:51 AM 54.0 °F - 53.1 °F 97% 30.05 in 10.0 mi Calm Calm - 0.00 in   Overcast
8:51 AM 55.9 °F - 53.1 °F 90% 30.04 in 10.0 mi ENE 3.5 mph - 0.00 in   Mostly Cloudy
9:51 AM 60.1 °F - 52.0 °F 75% 30.04 in 10.0 mi Variable 4.6 mph - N/A   Clear
10:51 AM 64.0 °F - 51.1 °F 63% 30.04 in 10.0 mi West 13.8 mph 19.6 mph N/A   Partly Cloudy
11:51 AM 64.0 °F - 51.1 °F 63% 30.04 in 10.0 mi WNW 9.2 mph 17.3 mph N/A   Overcast
12:51 PM 66.0 °F - 50.0 °F 56% 30.04 in 10.0 mi WNW 9.2 mph - N/A   Overcast
1:51 PM 61.0 °F - 50.0 °F 67% 30.05 in 10.0 mi North 11.5 mph 20.7 mph N/A   Overcast
2:51 PM 60.1 °F - 48.9 °F 67% 30.06 in 10.0 mi NW 9.2 mph - N/A   Overcast
3:51 PM 61.0 °F - 46.9 °F 60% 30.07 in 10.0 mi NNW 15.0 mph 20.7 mph N/A   Partly Cloudy
4:51 PM 61.0 °F - 43.0 °F 52% 30.08 in 10.0 mi NW 9.2 mph 17.3 mph N/A   Clear
5:51 PM 57.0 °F - 39.0 °F 51% 30.11 in 10.0 mi NNW 10.4 mph 19.6 mph N/A   Clear
6:51 PM 53.1 °F - 37.9 °F 57% 30.14 in 10.0 mi NW 8.1 mph 20.7 mph N/A   Clear
7:51 PM 50.0 °F - 37.9 °F 63% 30.18 in 10.0 mi NNW 8.1 mph - N/A   Clear
8:51 PM 48.0 °F - 37.9 °F 68% 30.21 in 10.0 mi NW 5.8 mph - N/A   Clear
9:51 PM 46.0 °F 42.5 °F 36.0 °F 68% 30.23 in 10.0 mi NNW 6.9 mph - N/A   Clear
10:51 PM 44.1 °F 40.1 °F 35.1 °F 71% 30.26 in 10.0 mi NNW 6.9 mph - N/A   Clear
11:51 PM 42.1 °F 38.4 °F 34.0 °F 73% 30.29 in 10.0 mi NNW 5.8 mph - N/A   Clear